Location: Aulus
(42.7909°N, 1.3399°E)
Time: 19:41:10
(UTC+00:00)

Cosmos 1400 Rocket - Pass Details

Date: 19 May 2025
Orbit: 484 x 519 km, 81.1° (Epoch: 21 June)

Event Time Altitude Azimuth Distance (km) Brightness Sun altitude
Rises 21:05:08 0° 213° (SSW) 2,559 6.1 -16.5°
Reaches altitude 10° 21:07:27 10° 224° (SW) 1,677 5.2 -16.8°
Maximum altitude 21:10:41 29° 286° (WNW) 929 4.5 -17.2°
Drops below altitude 10° 21:13:55 10° 348° (NNW) 1,679 6.3 -17.6°
Sets 21:16:13 0° 360° (N) 2,562 7.1 -17.8°
